IZ5TJI-3 Weather Reports


Display with metric or nautical units.
time (UTC)temp
F
wind
direction
speed
MPH
gust
MPH
rain 1hr
in
rain 24hr
in
rain mn
in
humidity
%
barometer
mb
20260906102842 89 337 0.0 4.0 0.00 0.00 0.00 53 1018.0
20260906101342 88 135 1.0 2.0 0.00 0.00 0.00 52 1017.9
20260906095842 87 315 0.0 0.0 0.00 0.00 0.00 55 1018.1
20260906094342 87 0 2.0 2.0 0.00 0.00 0.00 56 1018.2
20260906092842 86 135 0.0 1.0 0.00 0.00 0.00 57 1018.2
20260906091342 85 135 1.0 1.0 0.00 0.00 0.00 59 1018.4
20260906085842 84 202 0.0 0.0 0.00 0.00 0.00 64 1018.4
20260906084342 81 337 2.0 2.0 0.00 0.00 0.00 66 1018.3
20260906082842 80 180 2.0 2.0 0.00 0.00 0.00 68 1018.5
20260906081342 79 180 0.0 1.0 0.00 0.00 0.00 70 1018.3
20260906075842 78 90 0.0 1.0 0.00 0.00 0.00 71 1018.3
20260906074342 76 135 0.0 0.0 0.00 0.00 0.00 74 1018.4
20260906072842 75 180 0.0 0.0 0.00 0.00 0.00 76 1018.1
20260906071342 73 112 0.0 0.0 0.00 0.00 0.00 79 1018.0
20260906065842 72 315 0.0 0.0 0.00 0.00 0.00 81 1017.9
20260906064342 70 270 0.0 0.0 0.00 0.00 0.00 83 1017.9
20260906062842 68 202 0.0 0.0 0.00 0.00 0.00 86 1017.8
20260906061342 67 157 0.0 3.0 0.00 0.00 0.00 87 1017.6
20260906055918 66 225 0.0 0.0 0.00 0.00 0.00 88 1017.6
20260906055842 66 225 0.0 0.0 0.00 0.00 0.00 88 1017.6
20260906054342 66 67 0.0 0.0 0.00 0.00 0.00 88 1017.3
20260906052842 64 67 0.0 0.0 0.00 0.00 0.00 90 1017.3
20260906051342 64 90 0.0 0.0 0.00 0.00 0.00 90 1017.3
20260906045842 63 67 0.0 0.0 0.00 0.00 0.00 90 1017.3
20260906044342 64 67 0.0 0.0 0.00 0.00 0.00 90 1017.2
20260906042842 64 67 0.0 0.0 0.00 0.00 0.00 89 1017.2
20260906041342 64 45 0.0 0.0 0.00 0.00 0.00 90 1017.2
20260906035843 64 45 0.0 0.0 0.00 0.00 0.00 89 1017.0
20260906034343 64 45 0.0 0.0 0.00 0.00 0.00 89 1017.2
20260906032843 64 45 0.0 0.0 0.00 0.00 0.00 88 1017.1
20260906031343 64 45 0.0 0.0 0.00 0.00 0.00 88 1017.0
20260906025843 64 45 0.0 0.0 0.00 0.00 0.00 88 1016.9
20260906024343 65 45 0.0 0.0 0.00 0.00 0.00 88 1016.8
20260906022843 65 45 0.0 0.0 0.00 0.00 0.00 88 1016.8
20260906021343 65 45 0.0 0.0 0.00 0.00 0.00 88 1016.9
20260906015843 65 45 0.0 0.0 0.00 0.00 0.00 88 1017.1
20260906014343 66 45 0.0 0.0 0.00 0.00 0.00 88 1016.9
20260906012843 66 135 0.0 0.0 0.00 0.00 0.00 87 1016.9
20260906011343 66 135 0.0 0.0 0.00 0.00 0.00 87 1016.9
20260906005843 66 135 0.0 0.0 0.00 0.00 0.00 87 1016.8
20260906004343 66 202 0.0 0.0 0.00 0.00 0.00 87 1016.9
20260906002843 66 90 0.0 0.0 0.00 0.00 0.00 86 1016.8
20260906001343 66 22 0.0 0.0 0.00 0.00 0.00 86 1016.9
20260905235843 66 22 0.0 0.0 0.00 0.00 0.00 86 1016.9
20260905234343 66 22 0.0 0.0 0.00 0.00 0.00 84 1016.9
20260905232843 67 22 0.0 0.0 0.00 0.00 0.00 84 1017.0
20260905231343 67 22 0.0 0.0 0.00 0.00 0.00 84 1017.0
20260905225843 68 22 0.0 0.0 0.00 0.00 0.00 83 1017.1
20260905224343 68 22 0.0 0.0 0.00 0.00 0.00 83 1017.0
20260905222843 68 22 0.0 0.0 0.00 0.00 0.00 81 1016.8
20260905221343 68 22 0.0 0.0 0.00 0.00 0.00 81 1016.8
20260905215843 69 292 0.0 0.0 0.00 0.00 0.00 80 1016.8
20260905214343 69 22 0.0 0.0 0.00 0.00 0.00 79 1016.7
20260905212843 70 22 0.0 0.0 0.00 0.00 0.00 78 1016.6
20260905211343 71 22 0.0 0.0 0.00 0.00 0.00 78 1016.6
20260905205843 71 0 0.0 6.0 0.00 0.00 0.00 78 1016.4
20260905204343 71 337 0.0 5.0 0.00 0.00 0.00 78 1016.4
20260905202843 72 22 3.0 4.0 0.00 0.00 0.00 77 1016.5
20260905201418 72 0 0.0 3.0 0.00 0.00 0.00 75 1016.3
20260905201343 72 0 0.0 3.0 0.00 0.00 0.00 75 1016.3
20260905195843 72 0 0.0 0.0 0.00 0.00 0.00 74 1016.2
20260905194343 73 225 0.0 0.0 0.00 0.00 0.00 71 1016.2
20260905192843 74 225 0.0 0.0 0.00 0.00 0.00 69 1016.1
20260905191343 75 225 0.0 0.0 0.00 0.00 0.00 67 1016.0
20260905185843 76 225 0.0 0.0 0.00 0.00 0.00 65 1015.9
20260905184422 78 225 0.0 0.0 0.00 0.00 0.00 63 1015.8
20260905184343 78 225 0.0 0.0 0.00 0.00 0.00 63 1015.8
20260905182843 78 247 0.0 0.0 0.00 0.00 0.00 62 1015.6
20260905181343 79 247 3.0 5.0 0.00 0.00 0.00 61 1015.3
20260905175843 80 247 5.0 5.0 0.00 0.00 0.00 60 1015.3
20260905174343 81 270 3.0 3.0 0.00 0.00 0.00 60 1015.1
20260905172843 82 247 6.0 6.0 0.00 0.00 0.00 58 1014.9
20260905171343 83 247 4.0 4.0 0.00 0.00 0.00 57 1014.9
20260905165843 84 225 0.0 5.0 0.00 0.00 0.00 56 1014.8
20260905164343 84 247 7.0 11.0 0.00 0.00 0.00 55 1014.8
20260905162843 85 202 8.0 8.0 0.00 0.00 0.00 51 1014.7
20260905161344 86 247 5.0 6.0 0.00 0.00 0.00 49 1014.8
20260905155844 86 247 6.0 6.0 0.00 0.00 0.00 51 1014.7
20260905154344 87 247 2.0 4.0 0.00 0.00 0.00 50 1014.6
20260905152844 87 202 6.0 11.0 0.00 0.00 0.00 50 1014.3
20260905151344 87 247 7.0 7.0 0.00 0.00 0.00 49 1014.6
20260905145844 87 270 4.0 4.0 0.00 0.00 0.00 47 1014.6
20260905144344 88 225 5.0 8.0 0.00 0.00 0.00 45 1014.6
20260905142844 88 270 7.0 7.0 0.00 0.00 0.00 46 1014.7
20260905141344 89 225 8.0 8.0 0.00 0.00 0.00 46 1014.9
20260905135844 88 180 4.0 4.0 0.00 0.00 0.00 45 1014.9
20260905134344 89 225 5.0 5.0 0.00 0.00 0.00 45 1015.1
20260905132844 89 270 7.0 8.0 0.00 0.00 0.00 46 1015.2
20260905131344 89 202 6.0 6.0 0.00 0.00 0.00 47 1015.4
20260905125844 88 225 3.0 6.0 0.00 0.00 0.00 48 1015.6
20260905124344 88 270 6.0 8.0 0.00 0.00 0.00 48 1015.7
20260905122844 87 270 4.0 8.0 0.00 0.00 0.00 50 1015.7
20260905121344 87 180 0.0 6.0 0.00 0.00 0.00 52 1015.9
20260905115844 86 202 1.0 8.0 0.00 0.00 0.00 55 1016.0
20260905114344 86 270 2.0 4.0 0.00 0.00 0.00 54 1016.2
20260905112844 86 225 5.0 5.0 0.00 0.00 0.00 56 1016.3
20260905111344 85 292 8.0 8.0 0.00 0.00 0.00 58 1016.4
20260905105844 85 225 0.0 0.0 0.00 0.00 0.00 57 1016.3
20260905104344 84 270 0.0 0.0 0.00 0.00 0.00 58 1016.3